Date,TemperatureHighF,TemperatureAvgF,TemperatureLowF,DewpointHighF,DewpointAvgF,DewpointLowF,HumidityHigh,HumidityAvg,HumidityLow,PressureMaxIn,PressureMinIn,WindSpeedMaxMPH,WindSpeedAvgMPH,GustSpeedMaxMPH,PrecipitationSumIn
2014-1-1,59.0,47.5,31.0,25.0,21.0,17.0,59,36,21,30.15,29.88,10,5,20,0.00
2014-1-2,54.0,36.4,16.0,24.0,18.7,13.0,90,54,24,30.54,30.15,7,2,14,0.00
2014-1-3,59.0,41.0,22.0,32.0,23.0,15.0,91,54,24,30.35,29.80,10,3,20,0.00
2014-1-4,59.0,52.9,49.0,31.0,23.8,-99.9,44,33,23,29.83,29.63,14,10,35,0.00
2014-1-5,53.0,37.3,20.0,24.0,18.4,14.0,89,51,26,30.38,29.63,14,3,26,0.00
2014-1-6,41.0,21.6,11.0,14.0,10.6,6.0,85,65,29,30.64,30.32,7,2,117,0.00
2014-1-7,55.0,34.8,12.0,34.0,21.3,6.0,87,61,34,30.64,30.08,10,3,17,0.00
2014-1-8,57.0,48.0,25.0,31.0,24.9,21.0,84,43,27,30.13,29.85,12,4,24,0.00
2014-1-9,58.0,31.7,21.0,33.0,22.2,16.0,92,72,19,30.32,29.84,5,0,12,0.00
2014-1-10,55.0,49.3,41.0,34.0,24.8,16.0,64,40,23,29.93,29.72,15,6,30,0.00
2014-1-11,64.0,46.9,25.0,19.0,13.4,-99.9,64,30,14,30.25,29.90,6,2,17,0.00
2014-1-12,65.0,52.3,27.0,25.0,17.0,14.0,63,28,15,30.15,29.66,14,6,29,0.00
2014-1-13,54.0,45.2,27.0,16.0,3.1,-2.0,31,18,11,30.31,29.80,11,4,25,0.00
2014-1-14,54.0,43.6,22.0,13.0,6.5,1.0,67,25,14,30.41,30.01,9,3,22,0.00
2014-1-15,57.0,35.4,15.0,21.0,11.6,7.0,84,47,16,30.63,29.98,7,2,17,0.00
2014-1-16,57.0,43.9,22.0,16.0,10.0,5.0,69,27,15,30.24,29.91,6,2,16,0.00
2014-1-17,56.0,37.3,20.0,22.0,16.7,10.0,80,48,16,30.40,30.14,5,1,12,0.00
2014-1-18,58.0,41.6,17.0,24.0,11.3,-99.9,79,36,16,30.36,30.11,106,5,158,0.00
2014-1-19,61.0,43.8,18.0,19.0,12.4,9.0,77,35,14,30.53,30.01,6,2,13,0.00
2014-1-20,62.0,52.6,32.0,14.0,10.4,7.0,46,19,11,30.24,29.88,12,5,24,0.00
2014-1-21,58.0,40.6,19.0,16.0,12.3,9.0,69,35,16,30.54,30.19,10,3,14,0.00
2014-1-22,63.0,47.1,20.0,27.0,14.8,9.0,64,32,15,30.27,29.81,6,2,14,0.00
2014-1-23,40.0,27.2,14.0,24.0,13.3,-8.0,67,56,40,30.69,29.84,10,3,17,0.00
2014-1-24,52.0,32.0,14.0,19.0,9.6,-10.0,62,41,25,30.70,30.27,10,2,12,0.00
2014-1-25,62.0,48.2,31.0,31.0,12.3,-99.9,66,27,13,30.32,29.87,9,3,22,0.00
2014-1-26,61.0,54.2,50.0,36.0,32.8,29.0,56,45,31,29.96,29.66,14,8,158,0.00
2014-1-27,54.0,41.1,27.0,35.0,25.5,15.0,91,55,38,30.16,29.73,8,3,21,0.00
2014-1-28,47.0,28.1,11.0,38.0,5.6,-3.0,76,40,22,30.45,29.87,7,3,158,0.00
2014-1-29,55.0,31.2,9.0,17.0,9.0,-1.0,78,47,16,30.47,29.88,7,2,24,0.00
2014-1-30,63.0,55.7,38.0,22.0,18.8,14.0,41,24,19,29.92,29.64,12,5,30,0.00
2014-1-31,69.0,54.1,31.0,28.0,23.4,20.0,66,34,19,29.84,29.55,132,6,158,0.00
2014-2-1,65.0,51.3,30.0,25.0,21.4,-99.9,67,34,19,29.88,29.02,96,5,158,0.00
2014-2-2,50.0,35.8,24.0,36.0,28.7,22.0,94,78,36,30.17,29.66,4,1,13,0.10
2014-2-3,51.0,40.6,24.0,33.0,28.7,22.0,93,65,32,30.13,29.62,8,4,20,0.01
2014-2-4,47.0,40.3,23.0,23.0,17.3,12.0,63,40,27,30.14,29.63,12,6,28,0.00
2014-2-5,30.0,22.4,16.0,23.0,16.1,11.0,89,77,64,30.36,30.14,7,3,13,0.00
2014-2-6,40.0,22.6,15.0,22.0,16.0,11.0,89,77,47,30.42,30.07,6,2,17,0.00
2014-2-7,50.0,38.9,22.0,25.0,21.2,18.0,87,52,30,30.17,29.97,85,6,152,0.00
2014-2-8,58.0,46.1,27.0,22.0,17.2,10.0,70,35,16,30.23,29.97,14,4,24,0.00
2014-2-9,65.0,53.8,28.0,25.0,19.5,14.0,59,28,16,30.27,29.77,14,4,20,0.00
2014-2-10,69.0,59.2,32.0,23.0,20.4,14.0,59,23,15,29.88,29.63,12,5,22,0.00
2014-2-11,48.0,28.3,18.0,26.0,19.9,15.0,90,73,37,30.27,29.83,7,2,12,0.00
2014-2-12,60.0,44.7,23.0,25.0,16.4,7.0,78,37,14,30.33,29.91,9,2,18,0.00
2014-2-13,65.0,56.0,47.0,22.0,16.0,11.0,25,21,18,29.99,29.75,10,4,118,0.00
2014-2-14,72.0,62.1,38.0,20.0,18.3,16.0,45,19,13,29.98,29.73,10,3,21,0.00
2014-2-15,78.0,61.5,33.0,20.0,15.1,-99.9,54,20,9,30.20,29.78,7,3,18,0.00
2014-2-16,77.0,61.9,33.0,22.0,15.4,11.0,49,20,9,30.14,29.83,9,3,17,0.00
2014-2-17,69.0,58.8,37.0,21.0,14.7,10.0,36,18,12,30.14,29.78,158,9,158,0.00
2014-2-18,73.0,57.2,36.0,22.0,19.2,16.0,51,26,12,30.09,29.83,9,3,21,0.00
2014-2-19,72.0,61.6,30.0,21.0,14.9,12.0,56,19,10,30.14,29.51,11,5,21,0.00
2014-2-20,64.0,57.7,27.0,17.0,10.5,6.0,44,16,11,30.09,29.50,16,6,33,0.00
2014-2-21,68.0,50.7,23.0,12.0,7.3,3.0,51,21,8,30.31,29.83,12,4,22,0.00
2014-2-22,69.0,54.4,26.0,14.0,7.1,-99.9,46,18,10,30.10,29.77,7,3,20,0.00
2014-2-23,69.0,56.9,30.0,15.0,10.9,8.0,47,19,10,30.12,29.86,7,2,12,0.00
2014-2-24,71.0,56.5,30.0,25.0,19.6,13.0,57,27,14,30.13,29.87,6,1,18,0.00
2014-2-25,68.0,55.7,30.0,31.0,24.1,20.0,66,33,19,30.08,29.77,10,2,17,0.00
2014-2-26,59.0,49.5,29.0,37.0,32.0,25.0,95,54,30,30.11,29.75,8,3,18,0.03
2014-2-27,68.0,54.5,29.0,34.0,24.6,13.0,86,37,13,30.08,29.63,14,5,30,0.01
2014-2-28,69.0,58.2,36.0,27.0,22.6,17.0,50,26,16,29.89,29.58,14,8,158,0.00
2014-3-1,71.0,57.1,30.0,23.0,14.6,-99.9,60,23,11,30.03,29.68,10,4,20,0.00
2014-3-2,63.0,53.0,35.0,42.0,28.9,14.0,66,42,15,30.05,29.62,13,4,26,0.00
2014-3-3,53.0,38.1,26.0,29.0,23.3,19.0,83,58,35,30.31,29.99,11,2,18,0.00
2014-3-4,65.0,51.5,26.0,32.0,21.8,16.0,90,37,20,30.10,29.72,5,2,12,0.00
2014-3-5,58.0,51.1,37.0,31.0,26.0,19.0,70,39,28,30.13,29.65,12,4,30,0.00
2014-3-6,67.0,51.2,20.0,28.0,18.1,14.0,88,35,14,30.27,29.81,10,3,16,0.00
2014-3-7,69.0,58.7,38.0,26.0,21.6,16.0,53,24,18,29.86,29.55,12,4,18,0.00
2014-3-8,58.0,43.7,34.0,31.0,26.7,-99.9,87,54,27,30.31,29.63,8,3,20,0.01
2014-3-9,47.0,41.0,31.0,33.0,28.1,25.0,92,62,46,30.33,30.17,5,2,12,0.14
2014-3-10,63.0,49.6,28.0,41.0,32.5,26.0,95,56,29,30.22,29.78,7,2,18,0.01
2014-3-11,68.0,57.4,49.0,34.0,25.6,14.0,51,32,15,29.78,29.60,11,6,28,0.00
2014-3-12,56.0,39.4,28.0,28.0,20.0,14.0,74,48,19,30.35,29.77,9,4,30,0.00
2014-3-13,62.0,45.9,33.0,25.0,19.8,16.0,51,37,23,30.31,29.82,8,4,16,0.00
2014-3-14,67.0,56.8,41.0,30.0,26.5,21.0,56,33,18,29.86,29.68,8,3,20,0.00
2014-3-15,60.0,52.5,44.0,31.0,23.2,-99.9,55,34,20,29.87,29.65,13,6,30,0.00
2014-3-16,45.0,39.7,27.0,35.0,26.5,19.0,92,61,39,30.30,29.82,9,4,21,0.50
2014-3-17,65.0,51.1,26.0,20.0,12.8,-99.9,79,24,12,30.29,29.59,9,5,24,0.01
2014-3-18,69.0,60.3,37.0,19.0,9.5,6.0,48,14,9,29.85,29.41,15,8,30,0.00
2014-3-19,62.0,43.3,30.0,22.0,16.8,6.0,60,37,17,30.22,29.80,7,3,14,0.00
2014-3-20,70.0,56.7,23.0,23.0,13.3,-99.9,77,25,10,30.25,29.74,10,4,22,0.00
2014-3-21,72.0,61.8,50.0,26.0,15.0,-99.9,39,17,10,29.78,29.63,10,6,26,0.00
2014-3-22,69.0,59.1,35.0,33.0,24.3,-99.9,67,29,17,30.00,29.70,9,3,20,0.00
2014-3-23,56.0,44.0,32.0,32.0,28.0,25.0,86,56,31,30.25,29.87,7,3,13,0.00
2014-3-24,68.0,55.1,28.0,29.0,21.5,18.0,77,34,15,30.22,29.95,11,2,22,0.00
2014-3-25,60.0,50.3,29.0,44.0,35.6,23.0,83,58,44,30.20,29.84,9,4,22,0.06
2014-3-26,67.0,56.3,44.0,41.0,29.5,17.0,77,43,15,29.85,29.58,10,6,31,0.07
2014-3-27,69.0,61.6,39.0,19.0,14.8,11.0,39,16,12,29.78,29.52,19,9,158,0.00
2014-3-28,64.0,55.1,34.0,28.0,22.4,16.0,53,29,16,30.06,29.64,12,5,26,0.00
2014-3-29,67.0,54.3,27.0,30.0,19.4,-99.9,68,30,17,30.27,29.92,9,3,22,0.00
2014-3-30,77.0,63.3,53.0,38.0,31.8,28.0,45,32,18,29.94,29.57,10,5,28,0.00
2014-3-31,73.0,65.0,41.0,39.0,18.3,9.0,45,18,9,29.87,29.58,10,5,29,0.00
2014-4-1,76.0,62.3,33.0,22.0,13.8,-99.9,50,19,9,30.02,29.70,9,4,35,0.00
2014-4-2,75.0,65.7,42.0,23.0,18.1,12.0,33,17,9,29.76,29.52,13,7,26,0.00
2014-4-3,64.0,60.1,52.0,27.0,20.3,3.0,30,22,13,29.78,29.46,14,6,158,0.00
2014-4-4,61.0,51.4,26.0,22.0,17.0,4.0,62,27,19,30.08,29.85,8,4,35,0.00
2014-4-5,68.0,57.5,48.0,35.0,24.0,-99.9,51,30,18,29.85,29.48,14,6,146,0.00
2014-4-6,60.0,51.1,37.0,27.0,15.6,5.0,62,26,12,29.85,29.62,11,4,30,0.00
2014-4-7,57.0,50.8,33.0,28.0,19.2,11.0,49,29,19,30.03,29.70,60,4,158,0.00
2014-4-8,70.0,62.7,23.0,27.0,18.9,12.0,80,21,11,30.44,30.13,7,3,17,0.00
2014-4-9,78.0,66.9,29.0,16.0,9.7,4.0,49,14,6,30.28,29.95,7,3,20,0.00
2014-4-10,76.0,68.5,40.0,11.0,3.1,-7.0,26,8,4,29.95,29.75,22,5,158,0.00
2014-4-11,80.0,64.4,33.0,21.0,7.9,0.0,28,13,5,30.06,29.77,7,3,16,0.00
2014-4-12,74.0,66.2,42.0,34.0,24.0,-99.9,45,22,15,29.82,29.55,12,5,25,0.00
2014-4-13,72.0,65.7,59.0,36.0,23.8,8.0,42,23,9,29.59,29.49,14,6,25,0.00
2014-4-14,65.0,43.1,30.0,27.0,17.8,8.0,81,42,11,30.35,29.50,12,4,26,0.00
2014-4-15,62.0,50.6,14.0,14.0,4.1,-1.0,69,17,9,30.40,29.84,8,3,18,0.00
2014-4-16,75.0,59.2,34.0,19.0,12.3,3.0,44,18,6,29.91,29.53,9,3,17,0.00
2014-4-17,67.0,60.0,42.0,28.0,17.9,3.0,50,20,11,30.02,29.54,26,4,26,0.00
2014-4-18,72.0,59.7,40.0,47.0,39.1,28.0,87,50,26,30.16,29.79,9,3,17,0.00
2014-4-19,71.0,58.8,51.0,50.0,44.1,-99.9,94,61,38,29.87,29.68,11,4,26,0.40
2014-4-20,71.0,61.3,40.0,51.0,38.6,28.0,96,51,20,30.02,29.82,7,2,17,0.41
2014-4-21,76.0,62.9,37.0,43.0,33.4,31.0,90,40,19,30.03,29.82,5,2,13,0.00
2014-4-22,76.0,65.8,41.0,47.0,38.1,34.0,89,40,22,30.06,29.62,9,3,20,0.00
2014-4-23,79.0,68.2,55.0,46.0,32.9,19.0,59,32,11,29.70,29.47,14,6,158,0.00
2014-4-24,76.0,61.9,44.0,32.0,19.5,12.0,42,21,9,29.87,29.53,7,3,24,0.00
2014-4-25,82.0,62.2,39.0,25.0,19.8,14.0,51,23,8,29.96,29.55,15,3,21,0.00
2014-4-26,79.0,68.1,41.0,44.0,16.4,-99.9,51,18,7,29.71,29.28,12,2,20,0.00
2014-4-27,71.0,59.0,46.0,32.0,22.9,8.0,56,28,10,29.68,29.23,14,5,26,0.00
2014-4-28,72.0,61.6,53.0,26.0,21.2,17.0,29,21,14,29.68,29.51,21,6,22,0.00
2014-4-29,64.0,55.5,43.0,21.0,10.8,1.0,33,17,11,30.00,29.60,8,3,16,0.00
2014-4-30,56.0,47.4,36.0,21.0,18.9,14.0,44,32,25,30.19,29.96,10,5,21,0.00
2014-5-1,54.0,48.0,42.0,28.0,21.4,19.0,53,35,28,30.10,29.93,11,5,20,0.00
2014-5-2,66.0,53.4,23.0,29.0,17.2,11.0,80,31,12,30.25,29.91,6,2,17,0.00
2014-5-3,76.0,64.0,30.0,22.0,13.1,-99.9,54,18,9,30.25,29.81,158,7,158,0.00
2014-5-4,83.0,67.8,36.0,17.0,10.6,4.0,38,13,5,30.19,29.71,10,3,18,0.00
2014-5-5,85.0,71.9,38.0,21.0,15.4,8.0,34,13,7,30.08,29.57,7,2,14,0.00
2014-5-6,79.0,68.7,49.0,38.0,23.1,15.0,35,19,11,29.88,29.48,12,5,20,0.00
2014-5-7,65.0,65.0,65.0,38.0,38.0,38.0,37,37,37,29.55,29.55,5,5,12,0.00
2014-5-13,53.0,46.7,39.0,25.0,22.7,21.0,48,39,32,30.31,30.14,6,3,18,0.00
2014-5-14,59.0,48.2,24.0,24.0,15.5,6.0,76,32,15,30.43,30.18,9,3,158,0.00
2014-5-15,71.0,56.2,25.0,12.0,8.1,5.0,47,18,8,30.35,29.96,21,4,26,0.00
2014-5-16,80.0,68.0,32.0,15.0,11.2,5.0,35,13,7,30.20,29.66,12,3,20,0.00
2014-5-17,84.0,72.1,39.0,27.0,13.6,-99.9,30,12,6,30.01,29.59,12,2,16,0.00
2014-5-18,88.0,73.6,47.0,34.0,20.8,8.0,48,18,5,29.84,29.52,11,3,33,0.00
2014-5-19,88.0,76.3,49.0,41.0,23.2,-99.9,56,18,8,29.74,29.54,64,5,158,0.00
2014-5-20,88.0,74.4,45.0,48.0,19.1,-99.9,43,15,7,29.90,29.56,6,2,17,0.00
2014-5-21,86.0,75.1,64.0,51.0,36.8,25.0,53,27,12,29.69,29.53,12,4,132,0.00
2014-5-22,80.0,68.5,58.0,54.0,44.6,-99.9,76,45,22,29.79,29.58,11,4,158,0.00
2014-5-23,76.0,65.8,54.0,56.0,50.0,43.0,91,58,41,29.79,29.65,8,2,158,0.67
2014-5-24,75.0,65.0,53.0,57.0,50.3,-99.9,92,64,28,29.77,29.61,8,3,158,0.37
2014-5-25,79.0,61.6,45.0,52.0,39.5,19.0,96,56,11,29.87,29.65,7,2,158,0.00
2014-5-26,80.0,64.2,43.0,52.0,37.2,30.0,83,45,17,29.93,29.67,7,2,25,0.00
2014-5-27,84.0,67.3,43.0,46.0,34.1,27.0,79,37,13,29.98,29.67,7,2,18,0.00
2014-5-28,79.0,64.3,45.0,47.0,39.8,33.0,78,45,22,30.00,29.71,7,2,14,0.00
2014-5-29,79.0,64.3,45.0,49.0,40.3,37.0,87,46,23,29.96,29.70,7,2,16,0.00
2014-5-30,80.0,65.8,53.0,48.0,42.6,38.0,75,47,26,29.83,29.66,6,1,13,0.00
2014-5-31,87.0,71.2,50.0,49.0,41.3,-99.9,78,39,20,29.82,29.60,6,2,16,0.00
2014-6-1,93.0,79.8,57.0,46.0,39.0,32.0,57,26,13,29.68,29.47,7,3,26,0.00
2014-6-2,95.0,79.6,55.0,47.0,32.3,20.0,64,24,7,29.73,29.49,7,2,14,0.00
2014-6-3,94.0,78.4,55.0,54.0,42.8,26.0,75,32,15,29.83,29.50,7,2,21,0.00
2014-6-4,97.0,80.5,54.0,54.0,40.7,30.0,65,29,13,29.66,29.42,7,2,22,0.00
2014-6-5,97.0,79.1,48.0,44.0,31.1,13.0,69,22,5,29.62,29.39,10,2,18,0.00
2014-6-6,94.0,81.9,62.0,54.0,45.4,36.0,60,31,15,29.52,29.36,14,5,30,0.00
2014-6-7,91.0,77.2,59.0,60.0,47.5,-99.9,70,38,16,29.55,29.39,14,4,30,0.00
2014-6-8,81.0,73.3,64.0,63.0,55.2,46.0,74,54,36,29.59,29.42,11,3,26,0.00
2014-6-9,77.0,67.0,53.0,60.0,49.7,38.0,84,56,32,29.81,29.50,7,2,18,0.00
2014-6-10,89.0,71.5,43.0,48.0,41.4,27.0,85,39,11,29.89,29.57,7,2,16,0.00
2014-6-11,92.0,81.0,64.0,44.0,36.3,28.0,44,22,11,29.64,29.44,13,3,20,0.00
2014-6-12,88.0,73.8,57.0,43.0,36.3,29.0,44,27,16,29.84,29.58,10,2,20,0.00
2014-6-13,82.0,68.7,60.0,62.0,54.7,40.0,89,65,24,29.82,29.62,7,2,20,0.40
2014-6-14,88.0,74.2,56.0,55.0,44.3,-99.9,85,40,17,29.83,29.47,12,4,156,0.16
2014-6-15,90.0,77.0,60.0,55.0,45.3,35.0,73,36,15,29.66,29.50,12,4,26,0.14
2014-6-16,87.0,76.5,67.0,54.0,42.4,34.0,61,32,17,29.77,29.54,11,2,37,0.14
2014-6-17,85.0,73.7,55.0,56.0,45.6,40.0,74,40,21,29.75,29.58,14,4,37,0.00
2014-6-18,89.0,74.3,55.0,56.0,45.5,36.0,69,39,16,29.74,29.54,8,2,20,0.00
2014-6-19,84.0,70.3,59.0,58.0,50.2,41.0,89,53,23,29.83,29.58,9,2,21,0.41
2014-6-20,75.0,65.6,52.0,59.0,54.7,49.0,94,70,49,29.91,29.73,7,2,16,0.44
2014-6-21,81.0,66.3,51.0,61.0,49.4,-99.9,96,63,21,29.82,29.55,6,1,16,0.00
2014-6-22,88.0,72.2,55.0,57.0,49.4,42.0,89,51,20,29.71,29.58,13,2,21,0.05
2014-6-23,83.0,70.4,53.0,60.0,51.5,43.0,81,53,28,29.72,29.57,6,2,16,0.05
2014-6-24,83.0,70.1,55.0,61.0,51.3,44.0,85,54,28,29.83,29.66,7,2,16,0.09
2014-6-25,83.0,66.6,53.0,56.0,50.9,43.0,88,60,30,29.91,29.68,9,2,20,0.03
2014-6-26,85.0,73.3,54.0,57.0,46.9,39.0,70,41,25,29.81,29.50,11,3,90,0.04
2014-6-27,91.0,79.2,67.0,52.0,45.8,40.0,52,32,17,29.59,29.38,9,4,24,0.04
2014-6-28,91.0,74.4,52.0,49.0,37.0,-99.9,64,31,13,29.66,29.45,10,3,20,0.00
2014-6-29,93.0,77.0,56.0,57.0,44.8,37.0,76,36,14,29.72,29.52,7,2,20,0.00
2014-6-30,92.0,78.0,57.0,56.0,46.9,38.0,75,38,20,29.70,29.48,11,3,26,0.00
2014-7-1,87.0,76.7,59.0,60.0,46.3,40.0,63,36,20,29.65,29.49,11,4,26,0.00
2014-7-2,80.0,70.1,56.0,56.0,51.7,46.0,76,53,38,29.83,29.62,7,3,22,0.00
2014-7-3,77.0,69.8,57.0,55.0,51.3,46.0,84,54,34,29.91,29.80,7,2,17,0.00
2014-7-4,82.0,72.0,64.0,51.0,47.8,42.0,61,44,26,29.93,29.81,7,4,22,0.00
2014-7-5,84.0,73.1,55.0,52.0,46.7,41.0,70,42,24,29.96,29.75,6,2,25,0.00
2014-7-6,82.0,70.7,54.0,59.0,50.6,46.0,83,51,30,29.85,29.69,7,2,18,0.09
2014-7-7,79.0,68.1,62.0,61.0,54.0,49.0,86,63,37,29.88,29.71,7,2,17,0.26
2014-7-8,83.0,72.7,50.0,53.0,47.7,43.0,89,45,25,29.88,29.70,7,3,18,0.24
2014-7-9,84.0,72.3,53.0,57.0,51.5,45.0,91,51,27,29.86,29.68,9,3,24,0.00
2014-7-10,84.0,71.4,54.0,57.0,52.3,48.0,89,54,30,29.81,29.67,9,3,20,0.00
2014-7-11,83.0,69.5,50.0,56.0,51.0,46.0,93,57,27,29.84,29.71,6,2,20,0.00
2014-7-12,81.0,67.7,63.0,58.0,55.0,51.0,80,65,37,29.88,29.77,9,4,21,0.05
2014-7-13,84.0,70.5,54.0,55.0,51.2,45.0,90,55,26,29.98,29.77,158,8,158,0.01
2014-7-14,80.0,67.6,55.0,61.0,53.7,50.0,86,64,35,29.90,29.79,4,1,13,0.24
2014-7-25,88.0,84.1,80.0,45.0,41.3,38.0,29,22,17,29.83,29.73,5,3,14,0.00
2014-7-26,88.0,75.6,59.0,57.0,48.7,42.0,80,41,23,29.78,29.62,9,3,20,0.00
2014-7-27,77.0,69.3,58.0,56.0,52.0,49.0,78,56,38,29.80,29.65,9,2,22,0.00
2014-9-3,78.0,70.7,53.0,59.0,57.0,50.0,89,63,46,29.74,29.63,5,2,22,0.00
2014-9-4,74.0,66.8,62.0,59.0,56.1,54.0,82,69,55,29.75,29.61,8,4,24,0.00
2014-9-5,66.0,63.9,62.0,62.0,55.8,53.0,90,75,67,29.84,29.72,6,3,20,0.16
2014-9-8,76.0,71.2,63.0,58.0,56.4,55.0,83,60,52,29.87,29.73,7,3,16,0.00
2014-9-9,80.0,70.0,55.0,59.0,55.7,53.0,93,63,40,29.84,29.65,8,2,20,0.00
2014-9-10,83.0,71.7,54.0,56.0,47.2,41.0,93,47,23,29.78,29.63,9,3,20,0.00
2014-9-11,59.0,54.8,51.0,50.0,48.4,47.0,87,79,66,29.76,29.74,3,0,7,0.00
2014-9-15,70.0,66.8,64.0,61.0,60.5,60.0,88,80,72,29.97,29.88,2,1,7,0.02
2014-9-16,74.0,66.1,62.0,61.0,58.2,55.0,92,77,51,29.95,29.83,5,1,16,0.01
2014-10-6,80.0,70.4,37.0,39.0,29.7,23.0,80,26,13,29.99,29.80,3,1,12,0.00
2014-10-7,79.0,65.4,38.0,37.0,32.2,29.0,76,34,17,29.93,29.71,7,3,20,0.00
2014-10-8,83.0,67.8,42.0,43.0,37.3,32.0,79,38,21,29.94,29.63,7,3,26,0.00
2014-10-9,81.0,70.6,54.0,49.0,44.3,38.0,67,41,24,29.75,29.56,12,4,26,0.00
2014-10-10,76.0,63.7,46.0,51.0,43.6,38.0,86,52,28,29.90,29.64,1,0,5,0.00
2014-10-11,67.0,57.2,43.0,51.0,45.6,40.0,93,65,51,30.05,29.85,0,0,1,0.00
2014-10-12,75.0,62.7,39.0,51.0,39.4,31.0,98,50,24,29.97,29.52,0,0,0,0.01
2014-10-13,67.0,54.2,33.0,35.0,29.6,19.0,73,41,24,30.19,29.55,0,0,0,0.01
2014-10-14,71.0,58.2,27.0,31.0,25.6,22.0,86,35,18,30.35,30.07,0,0,0,0.00
2014-10-15,79.0,63.2,30.0,32.0,26.6,22.0,74,31,15,30.24,29.96,0,0,0,0.00
2014-10-16,81.0,66.8,33.0,37.0,32.6,26.0,83,33,16,30.06,29.80,0,0,0,0.00
2014-10-17,83.0,67.6,39.0,42.0,38.0,33.0,83,40,19,30.04,29.77,0,0,0,0.00
2014-10-18,70.0,60.1,44.0,50.0,41.9,33.0,79,52,29,29.98,29.70,0,0,0,0.00
2014-10-19,71.0,61.5,54.0,53.0,48.5,45.0,84,64,42,29.93,29.75,0,0,0,0.00
2014-11-10,62.0,59.8,59.0,33.0,31.9,31.0,37,35,31,29.63,29.58,0,0,0,0.00
2014-11-11,62.0,48.6,34.0,39.0,32.6,28.0,88,56,37,30.09,29.63,0,0,0,0.00
2014-11-12,39.0,30.4,21.0,35.0,22.7,12.0,92,73,53,30.39,29.93,0,0,0,0.00
2014-11-13,42.0,26.6,15.0,20.0,14.4,9.0,80,62,37,30.55,30.28,0,0,0,0.00
2014-11-14,64.0,45.9,25.0,42.0,33.9,20.0,95,67,37,30.28,29.81,0,0,0,0.00
2014-11-15,63.0,50.7,32.0,38.0,33.6,29.0,93,54,34,29.99,29.76,0,0,0,0.00
2014-11-16,61.0,42.7,22.0,35.0,27.9,14.0,83,58,28,30.16,29.73,0,0,0,0.00
2014-11-17,31.0,19.9,13.0,14.0,11.2,3.0,83,70,29,30.55,30.16,0,0,0,0.00
2014-11-22,59.0,52.4,49.0,40.0,31.5,27.0,55,44,32,29.88,29.72,0,0,0,0.00
2014-11-23,57.0,50.6,37.0,27.0,23.4,19.0,59,35,24,29.92,29.56,0,0,0,0.00
2014-11-24,48.0,36.2,20.0,24.0,5.3,-6.0,81,33,13,30.16,29.92,0,0,0,0.00
2014-11-25,47.0,37.0,19.0,13.0,4.7,-1.0,63,28,14,30.52,30.14,0,0,0,0.00
2014-11-26,62.0,49.0,27.0,19.0,9.6,-6.0,64,22,11,30.33,30.09,0,0,0,0.00
2014-11-27,64.0,47.3,22.0,26.0,18.7,16.0,83,39,18,30.59,30.28,0,0,0,0.00
2014-11-28,68.0,46.2,20.0,24.0,12.4,8.0,76,35,10,30.45,29.98,0,0,0,0.00
2014-11-29,68.0,53.6,26.0,16.0,13.4,8.0,55,22,12,30.03,29.74,0,0,0,0.00
2014-11-30,67.0,55.7,32.0,20.0,13.2,7.0,55,20,13,30.08,29.76,0,0,0,0.00
2014-12-1,53.0,37.0,24.0,28.0,18.9,13.0,72,50,27,30.47,30.09,0,0,0,0.00
2014-12-2,66.0,45.3,24.0,43.0,29.3,17.0,94,61,22,30.37,29.89,0,0,0,0.00
2014-12-3,68.0,58.3,36.0,40.0,31.1,22.0,80,37,26,30.05,29.80,0,0,0,0.00
2014-12-4,69.0,52.9,35.0,46.0,34.5,30.0,94,56,28,30.12,29.82,0,0,0,0.00
2014-12-5,63.0,51.9,32.0,42.0,36.1,28.0,86,58,34,30.26,29.79,0,0,0,0.00
2014-12-6,59.0,46.5,30.0,38.0,31.1,25.0,96,59,27,30.49,30.18,0,0,0,0.00
2014-12-7,62.0,48.3,32.0,44.0,37.9,29.0,90,68,50,30.25,30.01,0,0,0,0.00
2014-12-8,60.0,46.3,25.0,41.0,34.3,23.0,96,68,35,30.45,30.18,0,0,0,0.00
2014-12-9,55.0,45.9,31.0,46.0,39.5,29.0,97,80,63,30.31,30.00,0,0,0,0.01
2014-12-10,62.0,46.1,35.0,51.0,39.3,33.0,97,74,50,30.10,29.89,0,0,0,0.02
2014-12-11,66.0,49.0,30.0,53.0,36.1,28.0,98,66,28,30.24,30.00,0,0,0,0.01
2014-12-12,67.0,51.3,31.0,49.0,34.5,29.0,98,60,27,30.27,30.02,0,0,0,0.01
2014-12-13,67.0,53.1,34.0,46.0,35.6,28.0,96,57,23,30.17,29.64,0,0,0,0.00
2014-12-14,58.0,48.1,38.0,35.0,24.5,5.0,78,42,17,29.88,29.61,0,0,0,0.00
2014-12-15,58.0,47.8,26.0,24.0,16.5,12.0,63,30,17,30.17,29.86,0,0,0,0.00
2014-12-16,57.0,45.4,26.0,41.0,31.2,15.0,73,59,41,30.28,29.91,0,0,0,0.00
2014-12-17,57.0,50.7,26.0,43.0,28.7,19.0,74,45,28,30.10,29.79,0,0,0,0.00
2014-12-18,57.0,42.6,25.0,32.0,25.3,18.0,87,54,28,30.29,30.00,0,0,0,0.00
2014-12-19,51.0,38.9,23.0,29.0,25.3,18.0,93,62,38,30.27,30.03,0,0,0,0.00
2014-12-20,54.0,38.8,17.0,31.0,22.0,14.0,90,51,33,30.30,29.95,0,0,0,0.00
2014-12-21,56.0,45.9,25.0,24.0,18.4,10.0,69,35,24,30.11,29.71,0,0,0,0.00
2014-12-22,61.0,53.1,48.0,29.0,26.3,21.0,42,35,28,29.75,29.52,0,0,0,0.00
2014-12-23,52.0,39.9,18.0,34.0,29.7,15.0,91,69,41,30.32,29.53,0,0,0,0.18
2014-12-24,41.0,26.1,11.0,28.0,14.1,7.0,88,65,31,30.50,29.96,0,0,0,0.03
2014-12-25,58.0,46.5,25.0,14.0,10.3,6.0,60,26,13,30.00,29.60,0,0,0,0.01
2014-12-26,58.0,47.9,28.0,30.0,19.6,11.0,84,38,18,29.95,29.58,0,0,0,0.00
2014-12-27,31.0,26.9,24.0,28.0,23.8,21.0,90,86,84,30.30,29.95,0,0,0,0.03
2014-12-28,45.0,35.3,16.0,27.0,18.7,6.0,92,54,29,30.38,30.08,0,0,0,0.06
2014-12-29,53.0,40.0,19.0,29.0,13.7,8.0,88,41,16,30.28,30.03,0,0,0,0.01
2014-12-30,37.0,25.7,19.0,26.0,19.6,12.0,91,78,61,30.42,30.11,6,1,12,0.00
2014-12-31,33.0,19.7,18.0,32.0,17.0,15.0,96,89,88,30.47,30.22,6,3,12,0.00
2015-1-1,46.0,44.3,41.0,36.0,35.1,35.0,79,71,66,29.80,29.78,7,4,20,0.00
2015-1-2,45.0,39.2,25.0,40.0,35.2,23.0,93,87,80,29.94,29.74,3,2,16,1.12